Regional Weather Roundup
Issued by NWS Midland/Odessa, TX

Skip options and go directly to product.
Home | Oldest Version | Previous Version | Current Version | All | Graphics & Text | Save Text | Print | Product List | Glossary On

Skip product version selection by date and time.   
670
ASUS44 KMAF 292210
RWRMAF
MIDLAND AREA WEATHER ROUNDUP
NATIONAL WEATHER SERVICE MIDLAND TX
500 PM CDT FRI AUG 29 2014

...IN SOUTHWEST TEXAS AND SOUTHEAST NEW MEXICO...

CITY           SKY/WX    TMP DP  RH WIND       PRES   REMARKS
ALPINE         MOSUNNY   91  43  19 NW12      30.06F
ANDREWS        FAIR      87  60  39 NE6       29.95F
ARTESIA        NOT AVBL
BIG SPRING     PTSUNNY   89  66  47 CALM      29.93F
CARLSBAD       SUNNY     93  46  19 VRB5      29.93F
DRYDEN           N/A     99  61  28 MISG      29.82F
FORT STOCKTON  SUNNY     94  50  22 N9        29.91F
GUAD PASS      PTSUNNY   87  45  23 NE13      30.12F
HOBBS          MOSUNNY   86  54  32 CALM      29.98F
MARFA          MOSUNNY   88  43  20 E7        30.06F
MIDLAND AIRPK  SUNNY     93  62  35 NE6       29.92F
MIDLAND INTL   SUNNY     93  63  36 NE9       29.91F
ODESSA         SUNNY     93  61  34 VRB7      29.92F
PECOS          MOSUNNY   96  47  19 CALM      29.88F
PRESIDIO       FAIR      99  45  15 N7        29.84F
SEMINOLE       SUNNY     89  58  34 E5        29.97F
SNYDER         PTSUNNY   87  67  50 N5        29.93S
WINK           MOSUNNY   98  53  22 N13       29.87F
$$
...OTHER STATIONS IN TEXAS...

CITY           SKY/WX    TMP DP  RH WIND       PRES   REMARKS
ABILENE        MOSUNNY   88  67  49 E16       29.89F
AMARILLO       SUNNY     89  40  17 W6        29.98F
AUSTIN         PTSUNNY   92  69  47 SE17G29   29.81S
BROWNSVILLE    PTSUNNY   89  74  60 SE16      29.75F
CORPUS CHRISTI CLOUDY    88  74  63 E14       29.80S
DALLAS FTW     MOSUNNY   93  66  40 VRB3      29.86R
DEL RIO        SUNNY     97  66  36 SE9       29.77F HX 100
EL PASO        MOSUNNY   93  42  17 CALM      29.97F
HOUSTON INT    PTSUNNY   86  72  62 SE13      29.83F
LUBBOCK        MOSUNNY   89  61  38 E6        29.95F
SAN ANGELO     CLOUDY    87  66  49 CALM      29.88R
SAN ANTONIO    PTSUNNY   97  65  34 E7        29.80F
WACO           MOSUNNY   95  67  39 E7        29.84S
WICHITA FALLS  NOT AVBL
$$
...OTHER LOCATIONS IN NEW MEXICO...

CITY           SKY/WX    TMP DP  RH WIND       PRES   REMARKS
ALAMAGORDO     SUNNY     91  39  16 W15       30.00F
ALBUQUERQUE    MOSUNNY   84  38  19 VRB5      30.11F
CANNON AFB     SUNNY     88  39  17 N1        30.02F
CLOVIS           N/A     88  36  15 SW3       30.04F
HOLLOMAN AFB   SUNNY     92  41  17 W10       29.97F
ROSWELL        SUNNY     91  52  26 E8        29.98F
RUIDOSO        MOSUNNY   73  46  38 SE10      30.22F
SANTA FE       SUNNY     79  37  22 SE10      30.16F
TRUTH OR CONSE SUNNY     89  41  18 NE12      30.04F
TUCUMCARI      SUNNY     90  37  15 VRB3      30.00F
$$

USA.gov is the U.S. government's official web portal to all federal, state and local government web resources and services.